Temp
3 2 3 3 4 5 4 7 8 9 9 9 8 7 7 7 7 8 9 10 13 14 14 14 12 13 13 13 14 16 16 15 16 16 15 16 16 16 16 16 16 15 14 14
3 4 4 5 5 5 3 6 8 9 9 9 8 8 8 7 7 8 9 10 12 13 14 14 14 13 13 14 14 14 14 14 15 16 15 15 15 15 15 15 15 15 15 14
3 4 4 4 5 5 4 7 8 8 8 9 9 8 8 9 7 8 10 10 11 12 13 15 14 13 14 15 14 13 14 14 15 14 15 15 15 14 15 15 15 14 14 14
3 4 5 4 5 5 6 8 10 9 9 9 8 9 8 8 8 9 10 11 12 12 13 14 14 14 15 14 14 15 14 14 13 14 14 15 15 15 15 16 15 14 13 14
5 5 4 6 6 7 8 8 9 9 9 9 9 9 9 8 9 10 11 12 14 14 14 14 15 15 14 15 15 15 14 14 14 14 14 14 14 14 14 15 15 14 14 13
3 3 5 6 7 7 9 8 8 8 9 9 9 10 11 10 9 10 12 13 14 14 14 15 15 15 15 15 15 15 15 15 15 15 14 15 15 15 15 14 14 14 14 14
5 5 6 6 8 8 8 8 7 8 8 9 8 10 11 11 10 10 11 12 13 15 15 15 15 15 16 16 16 16 16 16 16 15 15 15 15 15 14 14 14 14 14 14
6 7 6 7 7 8 7 8 7 8 9 8 8 10 11 10 9 9 9 10 11 14 15 15 15 16 16 16 16 15 15 15 16 16 15 15 15 15 15 14 14 14 14 14
7 7 7 7 7 7 8 7 8 6 6 8 7 9 11 10 10 9 9 9 10 11 14 14 14 14 15 15 16 16 15 15 15 15 15 15 15 15 15 14 14 14 13 13
6 7 6 8 7 8 8 8 8 6 8 8 8 8 9 9 9 9 8 8 10 12 12 13 14 14 14 15 15 16 15 15 15 15 14 14 14 14 14 14 14 14 12 11
5 6 7 7 6 6 7 8 6 6 6 9 9 9 8 7 7 9 8 9 10 11 12 13 13 14 14 13 14 15 15 15 15 14 14 14 14 14 14 14 14 12 11 11
5 4 5 6 6 6 7 7 6 6 7 3 7 9 8 7 7 8 9 10 11 12 12 13 13 13 14 14 13 13 13 14 13 13 13 13 13 13 13 13 12 11 11 10
6 3 3 5 7 7 6 6 5 4 4 4 7 9 7 7 8 9 10 11 12 12 12 13 13 13 13 13 14 13 13 13 13 12 12 12 13 13 12 12 12 11 11 11
6 3 4 4 6 5 7 6 6 5 5 6 6 9 9 7 7 7 9 10 11 11 11 12 12 12 12 12 13 13 13 13 13 12 12 12 12 12 11 11 10 10 10 10
5 4 2 4 5 5 6 6 6 3 6 6 7 7 7 6 6 7 8 9 9 10 10 10 10 10 10 10 11 11 12 12 12 12 12 12 11 10 10 10 10 10 9 9
3 3 2 4 4 5 7 6 6 6 6 6 6 7 6 6 7 7 8 8 8 8 8 8 8 8 9 9 9 9 9 9 10 11 11 10 10 10 9 9 9 9 9 9
4 3 3 4 4 6 6 7 6 6 6 7 7 6 4 5 5 6 6 6 6 6 7 8 8 8 8 8 8 9 9 9 9 9 9 9 9 9 9 8 8 8 8 8
4 3 3 2 4 4 6 5 6 6 4 4 5 3 3 3 6 6 6 6 6 7 7 7 7 8 8 9 9 8 8 8 9 9 8 8 8 8 7 7 7 7 7 7
2 3 3 3 2 5 6 6 7 7 4 2 3 2 3 4 6 6 7 6 5 6 6 6 6 7 7 8 8 8 8 8 8 8 8 8 8 8 7 7 6 6 6 7
3 2 3 2 4 6 6 6 6 6 4 3 3 2 2 3 4 3 5 5 5 5 6 6 6 6 6 7 7 7 7 8 8 8 8 8 7 7 7 7 6 6 6 6
3 2 3 4 2 4 4 5 6 6 5 3 3 2 1 1 2 2 1 3 3 2 2 2 2 3 4 5 6 6 7 8 8 7 7 7 7 7 6 6 6 6 5 5
4 2 3 2 3 3 5 5 5 3 3 2 2 1 0 0 0 1 0 -0 -1 -1 -1 -1 -1 1 3 4 4 5 6 7 7 7 7 7 7 6 6 5 5 5 5 5
3 3 3 3 4 4 4 4 3 3 2 1 1 1 -1 -1 -1 -2 -1 -1 -1 -1 -0 0 0 0 1 2 2 3 5 5 6 6 7 7 6 6 6 5 5 5 4 4
2 2 2 3 3 3 4 3 3 2 2 1 1 -1 -1 -2 -2 -2 -2 -2 -2 -2 -1 -1 -0 1 1 1 2 2 4 5 5 6 6 6 6 6 6 5 5 5 4 4
2 1 1 1 2 3 3 3 3 2 2 1 1 -1 -2 -2 -2 -2 -2 -2 -2 -2 -1 -1 -0 -0 -0 0 1 2 3 4 4 5 5 5 5 5 5 5 5 4 4 4
1 1 2 3 4 4 3 3 3 2 2 1 0 -1 -2 -3 -3 -3 -3 -3 -2 -2 -1 -1 -1 -1 -1 -0 1 1 2 3 4 5 4 4 4 4 4 4 3 2 2 2
Height
1470 1469 1463 1464 1464 1463 1463 1461 1459 1459 1462 1468 1471 1475 1477 1475 1477 1476 1471 1468 1459 1465 1465 1472 1479 1487 1492 1498 1504 1505 1508 1514 1517 1518 1519 1523 1530 1535 1537 1537 1538 1542 1545 1548
1468 1459 1458 1458 1462 1463 1467 1462 1458 1459 1464 1466 1471 1469 1474 1475 1477 1475 1469 1470 1463 1465 1468 1478 1481 1485 1489 1494 1501 1504 1507 1512 1515 1516 1517 1523 1529 1529 1531 1534 1536 1540 1542 1544
1462 1452 1454 1458 1458 1461 1466 1459 1456 1457 1462 1465 1463 1468 1473 1474 1470 1463 1466 1470 1468 1467 1467 1471 1476 1478 1486 1490 1495 1501 1502 1508 1512 1514 1515 1519 1525 1529 1532 1534 1534 1536 1537 1538
1456 1453 1453 1458 1457 1459 1457 1452 1449 1454 1457 1463 1468 1477 1472 1468 1464 1470 1464 1464 1464 1465 1465 1466 1472 1481 1486 1491 1489 1494 1500 1505 1508 1512 1515 1517 1520 1522 1524 1527 1527 1528 1531 1533
1452 1451 1455 1452 1451 1452 1451 1450 1450 1456 1456 1461 1473 1475 1468 1469 1466 1468 1463 1459 1464 1467 1470 1474 1476 1480 1484 1484 1488 1496 1500 1503 1504 1504 1507 1511 1513 1514 1519 1522 1524 1524 1524 1524
1457 1456 1455 1451 1450 1452 1449 1454 1458 1458 1457 1464 1471 1470 1469 1468 1469 1462 1455 1459 1463 1469 1473 1476 1478 1481 1483 1486 1490 1493 1495 1499 1499 1501 1505 1506 1508 1508 1511 1517 1518 1518 1518 1520
1454 1454 1453 1453 1450 1453 1452 1457 1466 1466 1467 1472 1476 1472 1472 1470 1468 1465 1462 1464 1465 1471 1473 1474 1476 1480 1482 1484 1485 1488 1492 1494 1496 1498 1498 1499 1502 1503 1507 1512 1512 1513 1513 1515
1455 1451 1458 1455 1455 1456 1460 1461 1465 1467 1472 1481 1478 1476 1476 1472 1470 1467 1465 1464 1464 1465 1468 1472 1474 1477 1479 1480 1482 1486 1489 1490 1492 1492 1493 1496 1499 1499 1503 1505 1507 1508 1509 1510
1457 1460 1461 1458 1458 1459 1457 1464 1461 1469 1479 1477 1485 1477 1473 1474 1474 1473 1470 1471 1469 1468 1468 1472 1475 1478 1478 1478 1480 1482 1484 1484 1486 1488 1489 1491 1493 1496 1499 1501 1501 1503 1505 1506
1460 1459 1466 1461 1462 1458 1459 1461 1464 1469 1471 1481 1481 1485 1482 1476 1475 1475 1475 1473 1471 1471 1474 1475 1476 1477 1474 1474 1475 1477 1478 1479 1482 1482 1485 1488 1489 1491 1494 1496 1497 1498 1502 1504
1462 1462 1467 1463 1470 1470 1466 1463 1467 1472 1480 1467 1482 1485 1483 1483 1478 1478 1477 1476 1475 1475 1474 1474 1475 1474 1474 1473 1472 1472 1473 1476 1479 1479 1481 1484 1485 1488 1490 1491 1492 1494 1498 1502
1464 1470 1475 1472 1469 1467 1465 1465 1469 1471 1473 1497 1487 1490 1483 1482 1481 1481 1479 1478 1477 1477 1476 1476 1475 1475 1474 1472 1471 1471 1473 1474 1475 1477 1478 1481 1483 1484 1485 1488 1488 1490 1493 1497
1465 1479 1488 1476 1472 1468 1471 1474 1478 1481 1486 1498 1486 1490 1486 1484 1483 1482 1480 1479 1479 1479 1480 1479 1478 1476 1475 1475 1473 1473 1473 1472 1474 1474 1474 1476 1478 1481 1482 1484 1486 1488 1491 1494
1465 1480 1480 1491 1481 1479 1475 1478 1480 1483 1491 1488 1491 1485 1482 1484 1485 1482 1481 1479 1479 1479 1480 1480 1480 1478 1476 1474 1473 1472 1472 1471 1471 1471 1472 1474 1476 1477 1479 1481 1483 1487 1489 1492
1469 1484 1489 1485 1480 1480 1479 1479 1481 1492 1486 1489 1490 1488 1485 1484 1483 1482 1481 1480 1480 1479 1478 1476 1475 1474 1473 1472 1471 1471 1471 1469 1469 1469 1470 1471 1473 1474 1476 1478 1480 1483 1485 1487
1474 1490 1489 1489 1486 1484 1481 1483 1484 1485 1486 1487 1489 1487 1486 1483 1481 1479 1479 1479 1479 1478 1477 1476 1475 1474 1473 1472 1472 1471 1469 1467 1467 1466 1466 1467 1468 1469 1471 1473 1475 1478 1480 1483
1479 1485 1491 1496 1490 1484 1489 1484 1484 1486 1487 1487 1487 1491 1489 1486 1484 1483 1480 1480 1479 1478 1476 1475 1473 1471 1470 1469 1467 1465 1462 1462 1461 1461 1463 1463 1463 1464 1466 1469 1470 1471 1475 1476
1481 1486 1493 1502 1494 1503 1488 1485 1484 1484 1489 1487 1486 1487 1487 1486 1482 1482 1480 1479 1478 1476 1473 1470 1469 1466 1465 1463 1461 1458 1456 1455 1455 1455 1456 1456 1457 1458 1461 1462 1464 1467 1471 1471
1479 1486 1495 1498 1504 1494 1485 1485 1486 1483 1493 1492 1490 1489 1487 1484 1482 1480 1479 1478 1477 1475 1472 1470 1466 1462 1460 1458 1455 1451 1449 1448 1446 1446 1447 1447 1448 1449 1451 1454 1457 1461 1463 1463
1483 1485 1491 1502 1500 1486 1487 1484 1484 1484 1492 1490 1490 1489 1487 1484 1484 1477 1474 1472 1469 1467 1464 1459 1456 1452 1450 1448 1445 1442 1440 1438 1437 1437 1437 1438 1439 1441 1441 1445 1448 1453 1455 1458
1492 1495 1496 1496 1503 1493 1485 1483 1484 1488 1493 1488 1488 1488 1487 1488 1485 1479 1475 1470 1465 1459 1453 1450 1446 1442 1439 1436 1434 1430 1428 1426 1427 1426 1426 1426 1427 1431 1435 1437 1442 1444 1448 1452
1488 1496 1497 1501 1500 1500 1481 1483 1486 1487 1485 1486 1487 1485 1483 1481 1477 1473 1466 1461 1458 1452 1448 1445 1438 1433 1431 1429 1426 1421 1418 1419 1417 1416 1416 1417 1419 1422 1426 1430 1434 1437 1442 1446
1488 1484 1486 1488 1485 1478 1479 1480 1482 1482 1483 1484 1483 1481 1480 1474 1471 1467 1462 1458 1453 1448 1443 1438 1433 1425 1421 1420 1417 1412 1409 1410 1409 1407 1407 1408 1411 1413 1418 1422 1427 1431 1436 1440
1480 1479 1481 1480 1477 1477 1477 1479 1480 1480 1480 1480 1478 1475 1474 1470 1468 1462 1458 1452 1447 1441 1435 1430 1425 1419 1413 1411 1408 1404 1402 1401 1399 1398 1398 1399 1402 1406 1411 1416 1421 1426 1430 1434
1477 1478 1478 1478 1474 1475 1474 1475 1476 1476 1476 1475 1473 1471 1469 1467 1463 1460 1452 1446 1441 1435 1430 1425 1418 1413 1406 1402 1398 1396 1395 1394 1392 1391 1390 1392 1395 1399 1404 1409 1414 1418 1424 1428
1466 1466 1471 1469 1462 1464 1467 1470 1472 1473 1472 1470 1468 1467 1465 1462 1458 1453 1448 1442 1435 1429 1423 1416 1411 1402 1395 1391 1389 1388 1387 1387 1387 1385 1386 1387 1390 1393 1399 1403 1410 1415 1420 1424
Wind_Speed
5 4 6 11 11 2 2 9 11 4 11 8 7 1 5 15 17 23 15 9 19 29 25 14 12 23 32 30 29 24 29 28 28 24 31 29 24 21 22 21 21 19 21 20
4 8 8 11 10 9 2 10 6 9 11 4 6 2 5 6 14 19 14 7 12 23 27 28 27 21 30 31 45 32 31 28 30 27 32 32 29 22 31 23 25 24 24 22
10 4 10 8 9 10 7 12 7 13 10 8 5 6 7 8 14 12 17 9 5 16 24 30 30 29 29 28 28 32 31 32 34 37 30 27 31 35 31 26 27 29 27 26
6 5 8 10 7 10 9 7 14 16 6 5 2 1 5 3 5 9 10 6 3 7 13 15 19 23 26 26 26 28 29 35 37 36 28 26 27 29 32 30 33 32 26 27
5 5 3 5 7 13 3 9 16 8 9 10 1 2 4 2 1 8 7 2 4 3 8 10 10 9 7 17 24 26 27 27 30 33 30 35 31 27 31 31 37 35 30 29
3 2 1 2 1 4 10 7 5 3 0 4 1 2 2 2 1 6 6 7 8 8 8 8 7 7 6 6 9 11 21 25 22 23 24 25 25 26 28 31 33 32 31 32
3 3 3 3 7 3 5 4 2 4 4 2 4 1 3 2 2 4 7 14 12 18 16 11 9 9 9 8 11 14 14 14 16 19 19 21 20 20 20 24 24 22 22 23
5 5 8 8 3 3 3 2 3 5 4 3 3 4 2 3 9 8 7 6 8 14 15 13 12 14 16 15 14 14 16 20 19 15 17 16 17 17 19 21 19 18 17 17
2 5 3 5 4 3 6 4 1 6 2 3 2 2 1 4 9 10 12 13 14 14 7 4 4 7 12 16 17 19 18 17 19 20 18 18 17 18 19 19 18 19 17 18
2 4 3 3 3 6 1 0 1 3 4 4 3 2 2 7 7 5 7 12 14 13 11 7 3 2 2 7 11 14 18 15 16 16 15 15 14 14 13 14 14 16 16 17
2 3 2 2 4 2 3 2 5 4 2 4 3 2 2 5 4 3 5 11 13 14 13 12 10 8 5 4 4 10 14 15 14 15 14 13 12 12 11 10 10 12 15 16
3 3 4 1 4 3 2 3 3 3 3 4 3 1 2 2 1 5 6 9 13 14 12 11 11 11 11 10 5 1 5 8 9 10 10 11 11 10 10 10 12 17 19 19
1 3 3 6 3 2 5 4 4 4 2 2 4 2 2 3 4 8 9 5 6 9 13 10 9 8 8 8 8 5 2 4 7 8 9 11 11 11 11 12 16 18 19 19
4 4 3 4 2 1 4 4 3 3 3 2 1 0 1 6 6 12 12 10 12 15 13 9 9 9 9 9 7 6 6 5 7 10 12 13 13 13 13 15 18 20 21 20
3 4 3 4 3 3 3 4 3 4 2 3 1 2 4 6 6 11 15 15 14 13 12 13 13 13 10 8 10 10 11 11 12 12 13 14 15 16 18 20 21 22 22 20
4 1 2 4 5 5 2 2 3 3 2 0 1 2 2 10 12 16 17 16 17 18 17 17 17 18 16 14 13 11 11 14 15 16 15 17 19 20 21 22 24 26 25 23
3 3 3 2 4 3 4 2 1 1 2 2 2 2 4 5 10 17 19 19 19 18 17 19 19 19 19 19 19 18 17 17 18 19 21 22 21 23 25 26 27 27 26 23
3 3 2 1 3 3 4 3 2 4 5 6 4 5 6 8 15 4 12 18 20 21 23 25 24 23 22 22 21 22 21 21 22 22 24 25 26 25 27 28 28 27 27 24
4 3 3 3 1 3 1 2 1 2 1 4 3 4 8 19 13 4 11 23 24 24 25 26 26 27 28 26 24 25 24 23 24 24 25 26 29 28 29 28 27 28 27 23
4 5 4 1 2 2 4 2 1 2 3 1 2 4 8 15 6 5 27 32 32 31 30 32 32 32 31 29 29 29 26 25 25 23 24 26 29 30 28 27 28 27 24 23
2 3 3 2 1 5 4 3 1 2 2 2 4 8 9 4 9 24 31 33 34 37 38 36 36 35 35 31 28 31 30 28 23 24 24 24 25 28 27 27 27 26 25 24
5 5 3 2 2 5 4 2 5 2 2 4 6 11 15 19 24 28 31 33 33 35 33 34 38 37 34 31 30 32 31 26 26 24 24 24 23 28 28 27 26 26 26 25
2 5 4 6 5 2 3 4 8 3 2 4 11 15 16 20 24 26 27 29 31 31 32 34 36 35 32 31 30 32 31 26 26 25 23 23 22 27 27 27 28 28 28 26
3 4 2 1 3 6 7 9 4 2 5 10 13 14 16 21 22 26 27 28 30 31 33 36 31 33 35 36 32 29 28 28 25 24 22 22 24 28 28 29 29 29 29 28
4 6 4 3 3 3 6 12 4 4 8 13 14 16 17 19 24 25 29 31 33 36 36 36 32 40 40 38 38 27 24 25 23 21 20 23 25 30 32 32 32 31 29 25
10 7 5 5 11 5 6 14 5 5 9 11 14 17 16 16 21 24 27 29 33 35 34 33 39 39 35 29 26 25 22 21 20 17 17 21 24 28 30 29 29 26 23 22
Wind_Direction
202 221 230 202 196 266 53 179 171 171 152 138 196 54 307 304 309 295 300 283 188 176 182 216 253 216 197 182 192 178 184 189 195 222 216 228 233 239 240 233 232 237 236 234
229 243 237 207 205 231 167 195 161 119 147 118 159 89 272 290 274 268 289 283 147 180 176 187 193 209 194 201 199 211 210 205 202 224 222 232 226 230 244 255 260 250 246 243
245 291 172 166 190 184 226 204 154 135 117 83 107 25 282 246 244 302 273 259 150 152 169 184 199 199 209 210 207 211 230 216 216 226 229 225 223 230 247 250 258 256 255 252
237 221 168 163 209 189 177 193 145 146 166 94 25 218 267 264 311 251 283 233 161 140 139 150 169 191 204 207 212 220 223 220 233 234 235 241 240 243 248 261 265 272 268 264
68 136 137 161 181 196 194 142 140 163 110 124 97 80 287 310 255 281 271 240 234 173 158 154 154 162 170 192 206 220 228 232 236 233 231 241 237 234 240 245 251 272 274 272
86 339 185 289 228 180 135 102 98 103 150 59 111 155 63 81 199 304 360 324 273 246 223 194 190 193 206 202 205 210 221 227 231 233 234 239 245 245 246 249 249 254 261 259
158 105 191 49 101 36 86 73 43 28 47 80 317 50 33 339 59 273 305 305 268 237 237 228 236 249 245 252 247 238 231 226 228 234 236 239 244 244 246 248 253 258 253 249
27 64 11 348 56 122 82 136 156 143 129 170 248 51 26 327 60 39 26 335 256 215 225 235 245 253 251 246 244 241 241 238 234 234 234 241 245 244 247 251 253 258 256 258
59 50 16 16 19 4 313 38 275 106 66 94 349 328 170 44 61 47 51 67 79 105 140 179 225 251 247 242 241 244 249 244 241 241 238 238 242 246 248 252 253 254 249 242
68 99 13 18 56 321 292 257 63 13 98 82 37 50 315 345 359 14 38 49 66 78 90 86 57 33 307 257 246 243 237 241 246 241 236 235 236 241 246 251 251 245 231 216
39 43 319 11 22 341 353 13 48 108 48 123 102 343 253 294 311 21 44 65 65 69 72 69 61 40 19 9 257 246 237 235 243 236 235 242 248 250 249 243 234 209 203 209
334 106 65 174 270 258 3 40 75 96 344 47 89 330 333 285 70 113 53 58 62 48 34 34 37 34 30 26 23 43 225 233 233 228 231 238 245 248 248 240 219 206 205 204
6 14 37 351 6 50 51 27 56 70 69 358 99 201 132 38 36 39 19 33 31 15 6 355 354 356 354 2 14 6 271 236 237 241 249 254 256 251 240 225 208 203 199 199
85 64 113 157 236 297 56 34 40 97 72 167 53 46 350 14 1 336 358 351 327 329 333 340 336 321 302 298 299 287 283 274 254 247 244 245 244 242 236 223 212 207 206 207
79 95 72 46 27 50 55 33 25 76 144 99 230 254 324 340 330 331 341 347 344 344 338 336 341 347 346 321 288 280 272 258 252 245 247 246 242 235 227 222 217 216 211 219
16 99 83 31 13 27 94 74 67 77 100 139 245 305 6 346 26 14 5 10 13 9 6 1 354 345 337 329 315 303 285 263 254 250 249 245 240 236 234 230 224 218 221 230
56 117 65 330 341 7 28 24 85 98 155 145 111 63 342 350 347 2 11 18 9 3 356 345 340 337 331 324 317 305 293 282 272 257 246 239 236 233 230 228 227 228 227 223
116 93 78 165 4 45 245 305 239 86 31 6 50 25 21 339 332 68 29 7 351 342 334 330 327 321 316 314 312 307 300 289 277 268 254 241 233 228 224 223 221 220 219 219
47 104 75 96 137 256 47 355 77 168 26 356 43 352 344 349 333 272 336 337 329 322 316 313 311 309 307 306 304 300 299 296 285 273 263 249 236 232 228 224 224 222 221 222
42 65 99 95 103 193 230 271 23 71 253 17 38 352 343 354 347 287 320 321 317 312 306 302 299 298 294 296 298 293 293 290 291 285 269 257 239 233 231 229 224 223 222 221
31 17 125 154 186 286 237 276 136 128 228 339 350 341 336 310 275 299 310 309 308 306 305 304 301 301 296 292 291 285 287 285 292 284 273 259 246 232 231 227 221 220 217 214
174 143 184 100 113 292 191 130 170 156 124 337 328 328 316 313 312 312 312 314 320 319 316 307 305 297 294 294 290 286 278 285 286 282 273 257 243 224 223 220 218 214 214 217
222 184 183 181 211 182 164 152 134 87 355 327 319 319 321 314 318 317 314 312 312 315 312 315 310 309 303 300 296 286 280 281 279 278 272 250 235 219 218 216 213 213 214 218
241 185 188 108 209 195 164 162 160 360 331 325 324 323 325 325 324 316 317 315 312 312 313 319 312 306 302 299 295 289 279 278 272 274 266 236 225 214 212 212 215 218 218 220
198 146 179 263 254 171 218 196 214 307 328 330 328 331 328 320 315 321 322 323 323 321 321 320 311 307 296 290 287 288 272 268 266 265 252 227 219 214 212 211 214 214 220 226
192 181 173 219 194 166 167 197 248 297 325 332 335 330 326 330 324 323 320 317 318 321 322 323 316 314 308 294 281 282 259 255 249 248 238 223 217 213 212 216 212 213 218 219